Regional Weather Roundup
Issued by NWS

Home | Current Version | Previous Version | Text Only | Print | Product List | Glossary Off
Versions: 1 2 3 4 5 6 7 8 9 10 11 12 13 14 15 16 17 18 19 20 21 22 23 24 25 26 27 28 29 30 31 32 33 34 35 36 37 38 39 40 41 42 43 44 45 46 47 48 49 50

000
ASUS43 KMPX 280301
RWRMN
WEATHER ROUNDUP FOR MINNESOTA
NATIONAL WEATHER SERVICE TWIN CITIES/CHANHASSEN MN
900 PM CST SAT DEC 27 2014


NOTE: "FAIR" INDICATES FEW OR NO CLOUDS BELOW 12,000 FEET WITH NO
SIGNIFICANT WEATHER AND/OR OBSTRUCTIONS TO VISIBILITY. N/A MEANS
CURRENT SKY AND/OR WEATHER CONDITIONS ARE NOT AVAILABLE.

MNZ060>063-068>070-280400-
   Twin Cities Metro

CITY           SKY/WX    TMP DP  RH WIND       PRES   REMARKS
TWIN CITIES    PTCLDY    12   6  77 SW5       30.12S WCI   4
ST PAUL        CLEAR     14   6  70 CALM      30.13F
CRYSTAL        CLEAR     13   6  74 SW7       30.10S WCI   3
LAKEVILLE      CLEAR     10   7  85 CALM      30.11F
EDEN PRAIRIE   CLEAR      9   5  84 SW6       30.10F WCI  -1
SOUTH ST PAUL  CLEAR     14   8  76 CALM      30.12S
LAKE ELMO      FAIR      12   7  79 CALM      30.11S
$$
MNZ001>005-007-008-013>017-022>024-027-028-280400-
   Northwest Minnesota

CITY           SKY/WX    TMP DP  RH WIND       PRES   REMARKS
BEMIDJI        LGT SNOW  17  14  88 W3        29.99S
HALLOCK        CLOUDY    10   5  79 N10       30.09R WCI  -3
ROSEAU         CLOUDY    10   3  72 NW10      30.05R WCI  -3
WARROAD        CLOUDY     9   3  78 NW9       30.04R WCI  -5
THIEF RVR FALL CLOUDY    16  14  93 N5        30.03R WCI   9
CROOKSTON      FLURRIES  18  16  93 CALM      30.05S
FOSSTON        CLOUDY    16  14  93 NW8       30.01S WCI   5
DETROIT LAKES  MOCLDY    21  19  93 SW6       30.01S WCI  14
MOORHEAD       LGT RAIN  21  21 100 CALM      30.04S
PARK RAPIDS    CLOUDY    20  15  81 SW6       29.99S WCI  12
MAHNOMEN       LGT SNOW  19  17  93 SW5       30.00F WCI  12
$$
MNZ006-009>011-018-025>026-280400-
   North Central Minnesota

CITY           SKY/WX    TMP DP  RH WIND       PRES   REMARKS
BAUDETTE       CLOUDY    11   5  77 NW14      30.00R WCI  -5
FLAG ISLAND    PTCLDY     3  -2  78 NW16      30.03R WCI -16
INTL FALLS     LGT SNOW  13   8  81 W7        29.97S WCI   3
WASKISH        FLURRIES  14  12  92 CALM      30.00S
BIG FORK       LGT SNOW  16  10  79 W3        29.99R
LONGVILLE      CLOUDY    18  14  86 CALM      30.00F
GRAND RAPIDS   CLOUDY    18   9  68 NW5       29.98S WCI  11
CRANE LAKE     FLURRIES  12   9  85 W3        29.99S
ORR            FLURRIES  12   7  79 W5        29.95R WCI   4
COOK           CLOUDY    14   7  73 W6        29.97S WCI   5
WALKER         CLOUDY    18  14  83 W6        29.99S WCI  10
$$
MNZ012-019>021-037-280400-
   Northeast Minnesota

CITY           SKY/WX    TMP DP  RH WIND       PRES   REMARKS
DULUTH         MOCLDY    19   6  57 W7        29.97R WCI  10
ELY            PTCLDY    12   7  79 W6        29.95R WCI   3
HIBBING        CLOUDY    18   8  65 NW5       29.97S WCI  11
EVELETH        MIX PCPN  18   9  68 W7        29.98S WCI   8
DULUTH HARBOR  CLOUDY    25  10  54 W10G16    30.03R WCI  15
TWO HARBORS    MOCLDY    23  10  58 W6        29.96R WCI  16
SILVER BAY     CLOUDY    21   9  58 W5        29.95R WCI  15
GRAND MARAIS     N/A     21   9  59 VRB6      29.96S WCI  13
G MARAIS ARPRT MOCLDY    10   3  72 W7        29.87S WCI   0
$$
MNZ029>031-032-039>041-046>048-054>057-064-280400-
   West Central Minnesota

CITY           SKY/WX    TMP DP  RH WIND       PRES   REMARKS
FERGUS FALLS   CLOUDY    21  16  79 SW6       30.07F WCI  14
WHEATON        CLOUDY    21  18  86 SW10      30.07F WCI  10
MORRIS         CLOUDY    19  16  86 SW6       30.06S WCI  11
ALEXANDRIA     CLOUDY    19  15  84 SW7       30.04S WCI  10
ELBOW LAKE     CLOUDY    20  17  89 SW8       30.04F WCI  10
WADENA         CLOUDY    19  18  93 SW7       30.02S WCI  10
GLENWOOD       CLOUDY    16  14  93 SW8       30.05S WCI   5
APPLETON       CLOUDY    18  12  79 SW8       30.09S WCI   7
BENSON         CLOUDY    18  12  79 W9        30.08S WCI   6
ORTONVILLE     CLOUDY    18  12  79 SW3       30.08S
MADISON        CLOUDY    21  16  79 W6        30.10R WCI  14
WILLMAR        FAIR      16  10  79 SW10      30.09S WCI   3
$$
MNZ033>034-036-042>043-049>051-058-059-280400-
   Central Minnesota

CITY           SKY/WX    TMP DP  RH WIND       PRES   REMARKS
ST CLOUD       MOCLDY    17  10  74 SW6       30.07S WCI   9
SAUK CENTRE    CLOUDY    15  12  88 CALM      30.06S
PAYNESVILLE    CLEAR     14  12  90 S5        30.07F WCI   6
AITKIN         CLOUDY    21  14  73 W5        30.01S WCI  15
PINE RIVER     CLOUDY    19  16  86 SW3       30.04F
BRAINERD       CLOUDY    20  14  77 W14       30.03S WCI   7
STAPLES        CLOUDY    19  16  86 SW5       30.02F WCI  13
LITTLE FALLS   CLOUDY    18  12  79 CALM      30.06S
LITCHFIELD     CLEAR     12  10  92 CALM      30.09S
BUFFALO        CLEAR     10   6  84 SW3       30.11S
MAPLE LAKE     CLEAR     12   9  89 SW3       30.10S
$$
MNZ037-044-045-052-053-280400-
   East Central Minnesota

CITY           SKY/WX    TMP DP  RH WIND       PRES   REMARKS
PRINCETON      FAIR      14   9  79 CALM      30.08R
MORA           CLEAR     16   9  73 W7        30.07S WCI   6
CAMBRIDGE      CLEAR     16   7  67 SW3       30.07S
RUSH CITY      CLEAR     15   9  76 SW5       30.08S WCI   7
MOOSE LAKE     CLEAR     19   9  63 W3        30.01R
HINCKLEY       FAIR      19  10  68 CALM      30.05S
CLOQUET        PTCLDY    19   7  58 W5        29.99S WCI  13
MCGREGOR       PTCLDY    19  14  79 W6        30.02S WCI  11
$$
MNZ071>073-080-081-089-090-097-098-280400-
   Southwest Minnesota

CITY           SKY/WX    TMP DP  RH WIND       PRES   REMARKS
MONTEVIDEO     MOCLDY    16  12  86 W3        30.11S
GRANITE FALLS  CLEAR     12   9  86 S7        30.12F WCI   1
CANBY          MOCLDY    18  13  82 SW7       30.10S WCI   8
MARSHALL       CLEAR     12   7  79 SW17      30.09F WCI  -5
REDWOOD FALLS  FAIR      13   7  77 SW13      30.12S WCI  -2
OLIVIA         CLEAR     10   9  92 SW7       30.11S WCI   0
PIPESTONE      PTCLDY     5   3  92 W6        30.10S WCI  -6
WINDOM         CLEAR     10   9  92 SW9       30.13S WCI  -2
WORTHINGTON    CLEAR     10 -33  12 W9        30.13S WCI  -2
JACKSON        CLEAR     12   9  85 W9        30.13F WCI   0
TRACY          CLEAR     12   8  85 SW14      30.11F WCI  -4
SLAYTON        CLEAR     12   9  87 SW8       30.11S WCI   0
$$
MNZ065>067-074>077-082>085-091>093-280400-
   South Central Minnesota

CITY           SKY/WX    TMP DP  RH WIND       PRES   REMARKS
MANKATO        CLEAR     12   3  67 SW8       30.13S WCI   1
NEW ULM        CLEAR      7   3  85 W5        30.13S WCI  -2
ST JAMES       CLEAR     14   9  79 SW10      30.15R WCI   1
FAIRMONT       CLEAR     12   7  79 W14       30.13S WCI  -3
GLENCOE        CLEAR     10   8  89 SW5       30.11S WCI   2
FARIBAULT      CLEAR      9   5  85 S5        30.13S WCI   0
OWATONNA       CLEAR      9   5  85 SW5       30.13S WCI   0
ALBERT LEA     CLEAR     14  10  85 SW7       30.13S WCI   4
$$
MNZ078>079-086>088-094>096-280400-
   Southeast Minnesota

CITY           SKY/WX    TMP DP  RH WIND       PRES   REMARKS
ROCHESTER      CLEAR      9   4  80 W13       30.12R WCI  -7
RED WING       CLEAR     10   7  85 CALM      30.13S
STANTON        FAIR      11   6  77 S3        30.12S
DODGE CENTER   PTCLDY     7   3  85 SW10      30.10S WCI  -8
WINONA         CLEAR     18  12  79 CALM      30.16R
AUSTIN         CLEAR      9   7  92 SW3       30.13R
PRESTON        CLEAR     10   5  80 W7        30.13S WCI   0
$$
ABBREVIATIONS USED IN REMARKS
   TC - TEMPERATURES IN CELSIUS
  WCI - WIND CHILL INDEX
   HX - HEAT INDEX
  VSB - VISIBILITY
$$


USA.gov is the U.S. government's official web portal to all federal, state and local government web resources and services.